Lid_Strength_Index
3 4 5 5 5 6 6 7 7 7 6 6 6 6 5 5 5 9 10 8 6 8 7 5 6 8 7 8 10 9 9 8 11 12 12 12 13 12 13 12 13 12 14 15 14 17 17 7 8 11 9 8 7 7
3 4 5 5 6 6 6 7 7 7 7 6 6 6 5 5 5 7 10 7 6 7 8 7 6 6 6 5 7 8 9 9 8 11 12 12 12 13 13 13 10 13 11 13 12 12 9 8 9 8 7 7 7 6
3 3 4 6 6 6 7 7 7 7 7 6 6 6 6 5 5 7 11 10 8 9 10 11 11 8 6 4 6 9 7 7 8 8 9 10 11 11 13 12 11 10 9 11 11 10 8 7 7 6 6 6 5 5
2 3 3 5 6 6 7 7 7 7 6 6 6 6 6 5 5 6 12 10 8 9 12 12 6 6 4 4 4 5 6 6 7 9 11 11 11 10 12 11 11 9 9 10 10 9 8 7 6 5 5 5 5 5
2 3 3 4 5 6 6 7 7 7 6 6 6 7 6 6 6 9 11 11 8 9 11 10 8 6 6 4 4 5 6 8 9 9 11 11 11 12 12 12 13 10 10 10 11 8 8 8 6 5 7 7 6 5
2 2 3 3 4 5 6 6 7 7 5 6 6 6 6 6 6 10 11 9 9 8 11 12 9 8 7 6 5 6 6 8 9 10 10 10 9 10 11 13 10 9 8 7 8 7 7 7 6 6 6 5 4 4
2 2 3 3 4 5 5 6 6 6 6 6 6 6 6 5 11 11 12 10 7 9 11 13 13 10 8 9 9 9 8 8 9 10 10 10 10 10 12 13 8 7 7 7 6 6 7 6 6 5 4 4 4 5
2 2 2 2 3 4 5 5 5 6 6 6 6 5 5 5 9 12 9 6 8 9 10 14 13 11 9 11 11 11 10 10 10 10 10 11 11 11 13 10 9 8 6 6 6 6 6 5 5 5 5 5 5 5
2 2 2 2 2 3 4 5 5 5 6 6 6 6 9 11 13 10 3 5 8 10 14 13 14 14 10 11 11 11 11 12 11 12 12 10 12 12 11 10 10 8 7 6 6 6 6 6 6 6 5 5 5 5
3 3 3 3 3 3 4 4 5 5 6 6 8 10 13 10 5 6 10 12 13 12 11 13 12 13 11 12 12 11 12 13 14 12 11 13 14 10 9 8 7 7 6 6 7 7 7 7 6 6 5 5 5 5
3 3 3 3 3 3 4 4 5 5 7 10 11 11 9 5 9 11 14 15 15 16 15 13 12 12 10 12 12 11 12 12 14 12 13 14 14 11 9 9 8 7 6 5 5 5 6 6 5 5 5 4 5 5
2 3 3 3 3 3 3 4 4 7 9 9 9 8 8 9 11 13 17 15 15 16 15 15 14 12 12 10 11 11 12 12 13 11 13 15 11 9 8 8 8 7 6 6 6 6 6 5 5 5 5 5 5 5
2 3 3 2 3 3 4 4 5 5 6 7 9 10 13 13 17 17 17 16 16 15 14 14 14 12 11 11 12 12 13 14 12 15 15 13 11 8 7 6 7 7 7 6 6 5 5 5 5 5 5 5 5 5
2 2 2 2 2 3 3 4 4 5 8 11 12 16 15 17 16 16 16 15 14 12 12 13 13 12 12 12 12 13 12 13 16 17 16 13 11 8 6 6 7 8 6 6 5 5 6 6 6 5 5 5 5 5
2 2 2 2 2 3 3 3 4 6 8 12 12 16 15 14 14 13 13 13 11 11 11 12 12 12 12 12 13 14 15 16 16 16 14 10 8 8 7 7 7 7 7 7 6 6 6 6 6 5 5 5 5 5
2 2 4 2 2 3 3 4 6 6 8 10 12 14 13 13 13 13 13 13 11 10 10 10 12 13 13 12 15 16 16 17 15 12 10 9 9 9 9 8 8 7 6 7 6 6 6 5 6 7 5 5 5 5
2 5 2 2 3 3 3 7 7 8 10 12 13 11 11 12 12 12 12 12 10 10 12 12 13 14 12 13 14 13 15 13 11 11 10 9 9 8 8 8 7 8 8 8 8 7 8 7 7 8 7 6 5 5
5 3 2 2 4 4 6 6 8 10 13 12 13 12 11 11 11 12 11 10 9 10 11 11 10 12 13 14 14 11 11 10 10 10 9 9 8 7 6 7 6 6 6 6 7 7 8 8 8 9 9 7 6 6
4 3 2 2 3 6 8 8 7 11 11 11 11 11 11 11 11 10 10 10 8 8 9 11 12 14 13 10 11 11 11 11 12 11 9 6 6 5 5 5 5 5 5 5 5 6 7 8 8 7 7 6 6 7
2 2 2 2 3 6 8 9 7 10 11 11 11 12 12 12 11 11 11 10 9 10 11 11 12 11 10 8 7 8 9 9 10 11 11 9 6 5 5 5 6 6 7 7 7 9 8 9 6 5 5 6 7 7
3 3 3 4 5 6 7 9 10 10 11 12 11 12 12 12 12 12 12 11 12 13 13 11 10 8 8 8 7 7 8 9 10 10 10 11 10 6 6 6 5 6 6 6 7 8 9 8 8 5 6 6 7 7
5 3 5 5 7 6 8 8 10 10 11 12 12 12 13 13 13 12 12 13 12 11 11 11 10 10 10 9 9 9 8 8 9 10 9 9 9 9 7 7 6 6 6 6 5 6 6 7 6 5 6 6 7 6
3 4 6 6 9 12 12 9 11 11 12 12 12 12 12 12 12 11 13 12 12 11 11 11 10 10 10 10 9 9 9 10 10 10 8 8 8 7 8 7 6 6 6 6 5 5 6 8 8 6 5 6 6 7
3 7 9 10 11 12 9 11 11 11 12 12 13 13 13 12 11 12 13 13 9 9 9 9 9 9 9 9 9 9 9 8 8 8 8 8 9 8 8 8 7 7 7 6 6 7 7 7 7 6 5 6 6 7
13 12 11 16 10 11 11 11 11 12 12 11 11 11 11 10 12 12 12 9 7 9 9 9 10 10 11 10 10 9 8 8 9 9 8 7 8 8 8 8 7 7 6 7 8 8 7 6 6 5 6 6 6 6
16 11 12 10 10 10 10 10 10 10 11 11 10 9 10 11 11 11 9 6 6 6 6 7 7 8 7 7 7 8 8 8 8 8 7 7 7 7 7 7 7 6 6 6 7 7 7 7 6 6 6 6 9 6
13 10 10 8 9 9 10 10 9 10 11 11 12 11 12 12 12 8 6 6 7 6 6 6 6 7 7 7 6 6 5 5 6 6 5 6 6 5 6 6 6 4 5 6 7 6 7 6 6 6 5 5 5 5
10 10 11 10 10 9 10 10 10 10 10 8 11 12 12 11 10 7 6 5 5 6 7 6 6 6 6 6 6 6 6 5 5 5 4 4 3 3 4 5 4 6 4 4 4 5 5 5 5 5 5 5 5 4
10 10 9 10 9 9 9 9 9 7 7 9 10 10 10 8 7 7 6 6 7 8 9 9 9 8 7 7 7 6 6 6 7 8 7 7 5 4 4 4 4 4 4 4 8 6 4 5 4 4 4 4 4 3
9 8 10 9 10 10 7 6 7 6 6 6 7 8 8 7 6 5 6 7 9 9 9 9 9 9 9 8 7 6 4 4 5 6 7 7 5 4 3 4 4 4 4 4 4 5 10 7 7 4 4 4 3 3
7 7 8 9 9 7 6 5 5 6 6 7 7 9 9 8 7 6 7 7 8 8 9 9 9 8 8 7 7 7 7 4 3 3 4 4 3 3 3 4 4 4 4 4 4 4 4 4 2 2 3 3 3 3
8 9 8 9 8 6 6 7 7 7 7 8 9 9 9 10 11 8 6 7 8 9 9 9 9 9 8 7 6 5 7 5 5 4 3 2 2 2 2 3 2 2 2 4 4 4 4 3 2 2 3 3 2 2
7 7 8 8 8 8 8 7 7 8 8 9 9 9 9 10 12 9 6 6 7 8 9 9 8 8 7 6 6 6 7 5 6 9 8 7 7 5 2 1 2 2 2 3 3 3 3 2 2 2 2 2 2 2